| time (UTC) | temp C | wind direction | speed KPH | gust KPH | rain 1hr cm | rain 24hr cm | rain mn cm | humidity % | barometer mb |
| 20260904071532 | 27 | 200 | 0.0 | 0.0 | 0.00 | 0.28 | 0.00 | 88 | 1010.7 |
| 20260904070033 | 27 | 230 | 0.0 | 1.6 | 0.00 | 0.28 | 0.00 | 88 | 1010.8 |
| 20260904064538 | 27 | 236 | 0.0 | 1.6 | 0.00 | 0.28 | 0.00 | 88 | 1010.9 |
| 20260904063031 | 27 | 214 | 0.0 | 3.2 | 0.00 | 0.28 | 0.00 | 87 | 1010.8 |
| 20260904061536 | 27 | 223 | 0.0 | 1.6 | 0.00 | 0.28 | 0.00 | 87 | 1010.9 |
| 20260904060046 | 28 | 231 | 0.0 | 0.0 | 0.00 | 0.28 | 0.00 | 87 | 1011.0 |
| 20260904054539 | 28 | 221 | 0.0 | 0.0 | 0.00 | 0.28 | 0.00 | 88 | 1011.0 |
| 20260904053033 | 27 | 175 | 0.0 | 0.0 | 0.00 | 0.28 | 0.00 | 88 | 1010.9 |
| 20260904051525 | 27 | 126 | 0.0 | 0.0 | 0.00 | 0.28 | 0.00 | 89 | 1011.0 |
| 20260904050037 | 28 | 126 | 0.0 | 0.0 | 0.00 | 0.28 | 0.00 | 89 | 1011.1 |
| 20260904044527 | 28 | 126 | 0.0 | 0.0 | 0.00 | 0.28 | 0.28 | 89 | 1011.1 |
| 20260904043021 | 28 | 126 | 0.0 | 0.0 | 0.00 | 0.28 | 0.28 | 88 | 1011.1 |
| 20260904041524 | 28 | 115 | 0.0 | 0.0 | 0.00 | 0.28 | 0.28 | 88 | 1011.1 |
| 20260904040036 | 28 | 115 | 0.0 | 0.0 | 0.00 | 0.28 | 0.28 | 88 | 1011.2 |
| 20260904034521 | 28 | 104 | 0.0 | 0.0 | 0.00 | 0.28 | 0.28 | 87 | 1011.1 |
| 20260904033021 | 28 | 104 | 0.0 | 0.0 | 0.00 | 0.28 | 0.28 | 87 | 1011.2 |
| 20260904031522 | 28 | 104 | 0.0 | 0.0 | 0.00 | 0.28 | 0.28 | 87 | 1011.3 |
| 20260904030019 | 28 | 104 | 0.0 | 0.0 | 0.00 | 0.28 | 0.28 | 87 | 1011.2 |
| 20260904024518 | 28 | 84 | 0.0 | 0.0 | 0.00 | 0.28 | 0.28 | 87 | 1011.3 |
| 20260904023020 | 28 | 84 | 0.0 | 0.0 | 0.00 | 0.28 | 0.28 | 87 | 1011.1 |
| 20260904021618 | 28 | 84 | 0.0 | 0.0 | 0.00 | 0.28 | 0.28 | 87 | 1010.8 |
| 20260904020016 | 28 | 84 | 0.0 | 0.0 | 0.00 | 0.28 | 0.28 | 87 | 1010.8 |
| 20260904014516 | 28 | 84 | 0.0 | 0.0 | 0.00 | 0.28 | 0.28 | 86 | 1010.5 |
| 20260904013015 | 28 | 84 | 0.0 | 0.0 | 0.00 | 0.28 | 0.28 | 85 | 1010.4 |
| 20260904011514 | 28 | 84 | 0.0 | 0.0 | 0.00 | 0.28 | 0.28 | 85 | 1010.4 |
| 20260904010014 | 28 | 84 | 0.0 | 0.0 | 0.00 | 0.28 | 0.28 | 84 | 1010.3 |
| 20260904004519 | 29 | 84 | 0.0 | 0.0 | 0.00 | 0.28 | 0.28 | 84 | 1010.2 |
| 20260904003022 | 29 | 142 | 0.0 | 0.0 | 0.00 | 0.28 | 0.28 | 83 | 1010.3 |
| 20260904001512 | 29 | 142 | 0.0 | 0.0 | 0.00 | 0.28 | 0.28 | 83 | 1010.4 |
| 20260904000013 | 29 | 162 | 0.0 | 3.2 | 0.00 | 0.28 | 0.28 | 83 | 1010.4 |
| 20260903234512 | 29 | 158 | 0.0 | 3.2 | 0.00 | 0.28 | 0.28 | 84 | 1010.5 |
| 20260903233018 | 29 | 121 | 1.6 | 4.8 | 0.00 | 0.28 | 0.28 | 83 | 1010.3 |
| 20260903231513 | 29 | 145 | 0.0 | 3.2 | 0.00 | 0.28 | 0.28 | 83 | 1010.3 |
| 20260903230011 | 29 | 130 | 0.0 | 3.2 | 0.00 | 0.28 | 0.28 | 83 | 1010.3 |
| 20260903224516 | 30 | 137 | 0.0 | 4.8 | 0.00 | 0.28 | 0.28 | 83 | 1010.5 |
| 20260903223011 | 30 | 138 | 1.6 | 3.2 | 0.00 | 0.28 | 0.28 | 83 | 1010.6 |
| 20260903221507 | 30 | 73 | 0.0 | 4.8 | 0.00 | 0.28 | 0.28 | 84 | 1010.6 |
| 20260903220008 | 29 | 101 | 1.6 | 11.3 | 0.00 | 0.28 | 0.28 | 85 | 1010.7 |
| 20260903214506 | 29 | 81 | 3.2 | 11.3 | 0.00 | 0.28 | 0.28 | 85 | 1010.9 |
| 20260903213003 | 29 | 97 | 0.0 | 6.4 | 0.00 | 0.28 | 0.28 | 86 | 1011.5 |
| 20260903211502 | 28 | 84 | 0.0 | 14.5 | 0.00 | 0.28 | 0.28 | 87 | 1011.4 |
| 20260903210002 | 28 | 108 | 3.2 | 9.7 | 0.03 | 0.28 | 0.28 | 89 | 1011.4 |
| 20260903204502 | 28 | 80 | 3.2 | 11.3 | 0.08 | 0.28 | 0.28 | 91 | 1011.4 |
| 20260903203000 | 27 | 70 | 0.0 | 6.4 | 0.28 | 0.28 | 0.28 | 92 | 1011.3 |
| 20260903201600 | 27 | 81 | 0.0 | 4.8 | 0.28 | 0.28 | 0.28 | 92 | 1011.3 |
| 20260903200059 | 26 | 182 | 0.0 | 4.8 | 0.25 | 0.25 | 0.25 | 89 | 1011.1 |
| 20260903194558 | 27 | 218 | 0.0 | 12.9 | 0.23 | 0.23 | 0.23 | 86 | 1012.0 |
| 20260903193057 | 31 | 156 | 3.2 | 14.5 | 0.00 | 0.00 | 0.00 | 77 | 1011.8 |
| 20260903191557 | 32 | 102 | 9.7 | 24.1 | 0.00 | 0.00 | 0.00 | 76 | 1011.3 |
| 20260903190057 | 32 | 90 | 3.2 | 14.5 | 0.00 | 0.00 | 0.00 | 74 | 1011.5 |
| 20260903184604 | 31 | 101 | 4.8 | 16.1 | 0.00 | 0.00 | 0.00 | 77 | 1011.6 |
| 20260903183052 | 31 | 93 | 6.4 | 22.5 | 0.00 | 0.00 | 0.00 | 79 | 1011.8 |
| 20260903181554 | 31 | 108 | 9.7 | 20.9 | 0.00 | 0.00 | 0.00 | 78 | 1011.8 |
| 20260903180058 | 32 | 107 | 11.3 | 17.7 | 0.00 | 0.00 | 0.00 | 76 | 1012.2 |
| 20260903174548 | 32 | 87 | 0.0 | 8.0 | 0.00 | 0.00 | 0.00 | 73 | 1012.4 |
| 20260903173044 | 32 | 271 | 0.0 | 3.2 | 0.00 | 0.00 | 0.00 | 74 | 1012.3 |
| 20260903171546 | 32 | 114 | 0.0 | 4.8 | 0.00 | 0.00 | 0.00 | 74 | 1012.5 |
| 20260903170046 | 31 | 239 | 3.2 | 8.0 | 0.00 | 0.00 | 0.00 | 75 | 1012.8 |
| 20260903164535 | 31 | 59 | 0.0 | 4.8 | 0.00 | 0.00 | 0.00 | 78 | 1012.8 |
| 20260903163030 | 30 | 349 | 24.1 | 197.9 | 0.00 | 0.00 | 0.00 | 82 | 1012.6 |
| 20260903161527 | 29 | 199 | 0.0 | 3.2 | 0.00 | 0.00 | 0.00 | 84 | 1012.5 |
| 20260903160023 | 28 | 91 | 1.6 | 66.0 | 0.00 | 0.00 | 0.00 | 86 | 1012.6 |
| 20260903154519 | 28 | 91 | 0.0 | 3.2 | 0.00 | 0.00 | 0.00 | 87 | 1012.7 |
| 20260903153014 | 28 | 81 | 0.0 | 3.2 | 0.00 | 0.00 | 0.00 | 86 | 1012.6 |
| 20260903151511 | 28 | 80 | 0.0 | 4.8 | 0.00 | 0.00 | 0.00 | 86 | 1012.6 |
| 20260903150015 | 27 | 60 | 1.6 | 4.8 | 0.00 | 0.00 | 0.00 | 84 | 1012.6 |
| 20260903144513 | 27 | 46 | 0.0 | 1.6 | 0.00 | 0.00 | 0.00 | 84 | 1012.5 |
| 20260903143006 | 27 | 46 | 1.6 | 4.8 | 0.00 | 0.00 | 0.00 | 84 | 1012.6 |
| 20260903141506 | 27 | 46 | 0.0 | 1.6 | 0.00 | 0.00 | 0.00 | 84 | 1012.8 |
| 20260903140001 | 26 | 80 | 0.0 | 0.0 | 0.00 | 0.00 | 0.00 | 83 | 1012.8 |
| 20260903134626 | 26 | 80 | 0.0 | 0.0 | 0.00 | 0.00 | 0.00 | 83 | 1012.7 |
| 20260903133059 | 26 | 119 | 0.0 | 0.0 | 0.00 | 0.00 | 0.00 | 83 | 1012.8 |
| 20260903131558 | 26 | 119 | 0.0 | 0.0 | 0.00 | 0.00 | 0.00 | 82 | 1012.7 |
| 20260903130106 | 26 | 119 | 0.0 | 0.0 | 0.00 | 0.00 | 0.00 | 82 | 1012.7 |
| 20260903124557 | 27 | 96 | 0.0 | 3.2 | 0.00 | 0.00 | 0.00 | 82 | 1012.5 |
| 20260903123052 | 27 | 175 | 0.0 | 3.2 | 0.00 | 0.00 | 0.00 | 84 | 1012.4 |
| 20260903121553 | 28 | 209 | 0.0 | 1.6 | 0.00 | 0.00 | 0.00 | 89 | 1012.0 |
| 20260903120116 | 28 | 222 | 0.0 | 0.0 | 0.00 | 0.00 | 0.00 | 88 | 1011.9 |
| 20260903114600 | 28 | 222 | 0.0 | 1.6 | 0.00 | 0.00 | 0.00 | 88 | 1011.9 |
| 20260903113045 | 28 | 241 | 0.0 | 1.6 | 0.00 | 0.00 | 0.00 | 88 | 1011.8 |
| 20260903111543 | 28 | 231 | 0.0 | 3.2 | 0.00 | 0.00 | 0.00 | 88 | 1011.7 |
| 20260903110042 | 28 | 231 | 0.0 | 1.6 | 0.00 | 0.00 | 0.00 | 87 | 1011.5 |
| 20260903104541 | 28 | 162 | 0.0 | 1.6 | 0.00 | 0.00 | 0.00 | 87 | 1011.5 |
| 20260903103041 | 28 | 162 | 0.0 | 1.6 | 0.00 | 0.00 | 0.00 | 87 | 1011.5 |
| 20260903101541 | 28 | 162 | 0.0 | 0.0 | 0.00 | 0.00 | 0.00 | 87 | 1011.4 |
| 20260903100045 | 28 | 162 | 0.0 | 0.0 | 0.00 | 0.00 | 0.00 | 87 | 1011.4 |
| 20260903094543 | 28 | 162 | 0.0 | 0.0 | 0.00 | 0.00 | 0.00 | 87 | 1011.3 |
| 20260903093038 | 28 | 215 | 0.0 | 0.0 | 0.00 | 0.00 | 0.00 | 87 | 1011.3 |
| 20260903091538 | 28 | 187 | 0.0 | 0.0 | 0.00 | 0.00 | 0.00 | 87 | 1011.5 |
| 20260903090038 | 28 | 152 | 0.0 | 4.8 | 0.00 | 0.00 | 0.00 | 87 | 1011.5 |
| 20260903084539 | 28 | 163 | 0.0 | 3.2 | 0.00 | 0.00 | 0.00 | 87 | 1011.4 |
| 20260903083044 | 28 | 172 | 0.0 | 0.0 | 0.00 | 0.00 | 0.00 | 87 | 1011.4 |
| 20260903081538 | 28 | 159 | 0.0 | 0.0 | 0.00 | 0.00 | 0.00 | 87 | 1011.3 |
| 20260903080035 | 28 | 200 | 0.0 | 1.6 | 0.00 | 0.00 | 0.00 | 87 | 1011.2 |
| 20260903074533 | 28 | 80 | 0.0 | 3.2 | 0.00 | 0.00 | 0.00 | 86 | 1011.2 |
| 20260903073036 | 28 | 192 | 0.0 | 3.2 | 0.00 | 0.00 | 0.00 | 86 | 1011.2 |